Regional Weather Roundup
Issued by NWS

Home | Current Version | Previous Version | Graphics & Text | Print | Product List | Glossary On
Versions: 1 2 3 4 5 6 7 8 9 10 11 12 13 14 15 16 17 18 19 20 21 22 23 24 25 26 27 28 29 30 31 32 33 34 35 36 37 38 39 40 41 42 43 44 45 46 47 48 49 50
000
ASUS45 KBOI 301110
RWRID
WEATHER ROUNDUP FOR IDAHO
NATIONAL WEATHER SERVICE BOISE ID
500 AM MDT SAT AUG 30 2014

NOTE: "FAIR" INDICATES FEW OR NO CLOUDS BELOW 12000 FEET
WITH NO SIGNIFICANT WEATHER AND/OR OBSTRUCTIONS TO VISIBILITY

IDZ012-014-301200-
SOUTHWEST IDAHO


CITY           SKY/WX    TMP DP  RH WIND       PRES   REMARKS
BOISE          MOCLDY    67  44  43 NW9       29.84R
CALDWELL       MOCLDY    66  39  37 NW15G21   29.85F
MOUNTAIN HOME  MOCLDY    67  41  38 NW15      29.83R
$$

IDZ016-017-301200-
SOUTHCENTRAL IDAHO


CITY           SKY/WX    TMP DP  RH WIND       PRES   REMARKS
BURLEY         CLEAR     59  44  57 SW3       29.85S
JEROME         CLEAR     64  44  48 S6        29.86S
TWIN FALLS     CLEAR     66  40  38 S14       29.86F
$$

IDZ019>023-301200-
SOUTHEAST IDAHO


CITY           SKY/WX    TMP DP  RH WIND       PRES   REMARKS
IDAHO FALLS    MOCLDY    57  48  72 N5        29.88F
POCATELLO      CLEAR     56  47  71 CALM      29.88S
REXBURG        MOCLDY    57  47  69 N3        29.90F
$$

IDZ006-010-011-018-031-032-301200-
CENTRAL IDAHO MOUNTAINS


CITY           SKY/WX    TMP DP  RH WIND       PRES   REMARKS
MCCALL         PTCLDY    59  38  45 N10       29.93F
HAILEY         PTCLDY    55  50  82 NW10      29.95F
STANLEY          N/A     49  47  93 CALM      30.04F
SALMON         CLOUDY    64  46  52 S5        29.93R
CHALLIS        MOCLDY    57  53  86 W3        29.97S
$$

IDZ002-004-006-007-026-301200-
NORTHERN IDAHO


CITY           SKY/WX    TMP DP  RH WIND       PRES   REMARKS
LEWISTON       CLOUDY    68  44  42 CALM      29.87F
LOWELL           N/A     60  54  80 CALM      29.89F
COEUR D`ALENE  PTCLDY    54  41  62 S5        29.86R
MULLAN PASS    PTCLDY    49  37  63 W8        29.96S
$$


USA.gov is the U.S. government's official web portal to all federal, state and local government web resources and services.